TimeCDT,TemperatureF,Dew PointF,Humidity,Sea Level PressureIn,VisibilityMPH,Wind Direction,Wind SpeedMPH,Gust SpeedMPH,PrecipitationIn,Events,Conditions,WindDirDegrees,DateUTC
12:35 AM,43.7,42.3,95,30.02,7.0,NNW,5.8,-,N/A,,Overcast,340,2012-10-22 05:35:00
12:55 AM,43.5,42.3,95,30.02,7.0,North,9.2,16.1,N/A,,Overcast,350,2012-10-22 05:55:00
1:55 AM,42.4,41.9,98,30.04,2.5,NNW,6.9,-,N/A,,Overcast,340,2012-10-22 06:55:00
3:15 AM,41.9,40.6,95,30.05,7.0,North,8.1,-,N/A,,Overcast,10,2012-10-22 08:15:00
4:15 AM,41.5,39.6,93,30.05,7.0,NNE,8.1,-,N/A,,Overcast,20,2012-10-22 09:15:00
4:35 AM,41.2,39.2,93,30.05,10.0,NNE,8.1,-,N/A,,Overcast,20,2012-10-22 09:35:00
4:55 AM,40.6,38.7,93,30.05,7.0,NNE,6.9,-,N/A,,Overcast,20,2012-10-22 09:55:00
5:15 AM,39.9,37.9,93,30.06,10.0,North,4.6,-,N/A,,Overcast,360,2012-10-22 10:15:00
5:35 AM,38.5,36.9,94,30.06,10.0,North,4.6,-,N/A,,Mostly Cloudy,360,2012-10-22 10:35:00
6:15 AM,38.1,36.5,94,30.07,10.0,NNE,5.8,-,N/A,,Overcast,20,2012-10-22 11:15:00
6:35 AM,37.8,36.0,93,30.07,10.0,NNE,8.1,-,N/A,,Overcast,20,2012-10-22 11:35:00
7:15 AM,37.8,36.0,93,30.07,7.0,NNE,5.8,-,N/A,,Mostly Cloudy,20,2012-10-22 12:15:00
8:15 AM,38.1,36.5,94,30.07,7.0,NE,5.8,-,N/A,,Overcast,50,2012-10-22 13:15:00
8:35 AM,38.1,36.5,94,30.08,7.0,NNE,5.8,-,N/A,,Overcast,30,2012-10-22 13:35:00
9:15 AM,39.2,37.4,93,30.07,7.0,NE,8.1,-,N/A,,Overcast,40,2012-10-22 14:15:00
9:35 AM,40.3,37.9,91,30.07,7.0,ENE,8.1,-,N/A,,Overcast,70,2012-10-22 14:35:00
9:55 AM,41.4,38.1,88,30.07,10.0,ENE,8.1,-,N/A,,Scattered Clouds,60,2012-10-22 14:55:00
10:15 AM,41.7,38.1,87,30.07,7.0,ENE,9.2,-,N/A,,Scattered Clouds,70,2012-10-22 15:15:00
10:35 AM,42.6,38.3,85,30.08,7.0,NE,5.8,-,N/A,,Scattered Clouds,50,2012-10-22 15:35:00
10:55 AM,43.7,38.3,81,30.07,10.0,NE,9.2,-,N/A,,Mostly Cloudy,50,2012-10-22 15:55:00
11:15 AM,44.8,38.3,78,30.07,10.0,NE,9.2,-,N/A,,Mostly Cloudy,40,2012-10-22 16:15:00
11:35 AM,45.1,38.1,76,30.07,4.0,NNE,4.6,-,N/A,,Haze,20,2012-10-22 16:35:00
11:55 AM,46.0,38.3,74,30.07,10.0,ENE,6.9,-,N/A,,Overcast,60,2012-10-22 16:55:00
12:15 PM,46.6,38.1,72,30.07,10.0,ENE,6.9,-,N/A,,Overcast,60,2012-10-22 17:15:00
12:35 PM,46.9,38.3,72,30.05,10.0,ENE,6.9,-,N/A,,Overcast,70,2012-10-22 17:35:00
12:55 PM,47.3,38.3,71,30.05,10.0,ENE,8.1,-,N/A,,Overcast,70,2012-10-22 17:55:00
1:15 PM,47.8,37.9,69,30.04,10.0,East,6.9,-,N/A,,Overcast,80,2012-10-22 18:15:00
1:55 PM,48.9,37.8,65,30.03,7.0,ENE,6.9,-,N/A,,Overcast,60,2012-10-22 18:55:00
2:15 PM,49.5,37.6,64,30.02,7.0,ENE,8.1,-,N/A,,Overcast,70,2012-10-22 19:15:00
2:55 PM,51.3,37.8,60,30.02,10.0,NNE,10.4,-,N/A,,Overcast,30,2012-10-22 19:55:00
3:15 PM,51.1,37.4,60,30.02,7.0,NE,8.1,-,N/A,,Overcast,50,2012-10-22 20:15:00
3:35 PM,51.4,37.4,59,30.01,7.0,ENE,9.2,-,N/A,,Overcast,60,2012-10-22 20:35:00
3:55 PM,51.8,37.2,58,30.00,7.0,NE,8.1,-,N/A,,Mostly Cloudy,50,2012-10-22 20:55:00
4:15 PM,52.0,37.0,57,29.99,10.0,NE,9.2,-,N/A,,Mostly Cloudy,50,2012-10-22 21:15:00
4:35 PM,52.0,36.7,56,30.00,10.0,NE,10.4,-,N/A,,Mostly Cloudy,50,2012-10-22 21:35:00
4:55 PM,52.0,36.0,54,29.99,10.0,NE,10.4,-,N/A,,Scattered Clouds,50,2012-10-22 21:55:00
5:15 PM,51.8,36.0,55,30.00,10.0,NE,8.1,-,N/A,,Scattered Clouds,50,2012-10-22 22:15:00
5:35 PM,51.6,36.3,56,29.99,10.0,NE,8.1,-,N/A,,Overcast,50,2012-10-22 22:35:00
6:15 PM,50.5,36.3,58,29.99,10.0,ENE,8.1,-,N/A,,Mostly Cloudy,70,2012-10-22 23:15:00
6:35 PM,50.2,36.3,59,29.99,7.0,ENE,6.9,-,N/A,,Scattered Clouds,70,2012-10-22 23:35:00
6:55 PM,49.6,36.5,61,29.99,10.0,ENE,8.1,-,N/A,,Scattered Clouds,60,2012-10-22 23:55:00
7:15 PM,48.0,36.0,63,29.99,10.0,ENE,6.9,-,N/A,,Scattered Clouds,60,2012-10-23 00:15:00
7:35 PM,47.5,36.1,65,29.99,10.0,East,5.8,-,N/A,,Scattered Clouds,80,2012-10-23 00:35:00
7:55 PM,46.6,36.7,68,29.98,7.0,ENE,5.8,-,N/A,,Clear,70,2012-10-23 00:55:00
8:15 PM,46.4,37.9,72,29.99,10.0,East,4.6,-,N/A,,Clear,80,2012-10-23 01:15:00
8:35 PM,45.9,37.8,73,29.98,10.0,NE,5.8,-,N/A,,Scattered Clouds,50,2012-10-23 01:35:00
8:55 PM,46.0,37.9,73,29.98,10.0,NE,5.8,-,N/A,,Overcast,50,2012-10-23 01:55:00
9:15 PM,46.4,38.5,74,29.97,10.0,ENE,5.8,-,N/A,,Overcast,60,2012-10-23 02:15:00
9:35 PM,46.8,37.9,71,29.97,10.0,ENE,8.1,-,N/A,,Mostly Cloudy,70,2012-10-23 02:35:00
9:55 PM,46.9,37.4,69,29.96,10.0,ENE,6.9,-,N/A,,Clear,60,2012-10-23 02:55:00
10:15 PM,46.8,37.6,70,29.96,10.0,ENE,8.1,-,N/A,,Clear,60,2012-10-23 03:15:00
10:55 PM,48.0,41.2,77,29.95,10.0,East,16.1,19.6,N/A,,Overcast,100,2012-10-23 03:55:00
11:15 PM,48.2,42.4,80,29.94,10.0,East,11.5,20.7,N/A,Rain,Rain,90,2012-10-23 04:15:00
11:35 PM,47.5,42.8,84,29.94,10.0,East,9.2,-,0.01,,Overcast,90,2012-10-23 04:35:00
11:55 PM,47.5,42.8,84,29.93,10.0,East,15.0,19.6,0.01,Rain,Light Rain,90,2012-10-23 04:55:00